| time (UTC) | temp F | wind direction | speed knots | gust knots | rain 1hr in | rain 24hr in | rain mn in | humidity % | barometer mb |
| 20260506211536 | 65 | 260 | 0.9 | 6.1 | 0.00 | 0.09 | 0.09 | 83 | 1006.6 |
| 20260506211020 | 64 | 250 | 0.9 | 7.0 | 0.00 | 0.09 | 0.09 | 84 | 1006.6 |
| 20260506210520 | 64 | 300 | 0.9 | 7.0 | 0.00 | 0.09 | 0.09 | 84 | 1006.6 |
| 20260506210035 | 64 | 244 | 0.9 | 7.8 | 0.00 | 0.09 | 0.09 | 84 | 1006.5 |
| 20260506205518 | 64 | 240 | 0.9 | 9.6 | 0.00 | 0.09 | 0.09 | 85 | 1006.6 |
| 20260506205017 | 64 | 0 | 0.9 | 9.6 | 0.00 | 0.09 | 0.09 | 85 | 1006.4 |
| 20260506204538 | 64 | 0 | 0.0 | 6.1 | 0.00 | 0.09 | 0.09 | 86 | 1006.5 |
| 20260506204018 | 64 | 284 | 0.0 | 6.1 | 0.00 | 0.09 | 0.09 | 86 | 1006.4 |
| 20260506203519 | 64 | 172 | 1.7 | 6.1 | 0.00 | 0.09 | 0.09 | 87 | 1006.4 |
| 20260506203101 | 64 | 0 | 0.0 | 6.1 | 0.01 | 0.09 | 0.09 | 87 | 1006.2 |
| 20260506202521 | 64 | 0 | 0.9 | 6.1 | 0.01 | 0.09 | 0.09 | 88 | 1006.3 |
| 20260506202020 | 63 | 0 | 0.9 | 6.1 | 0.01 | 0.09 | 0.09 | 88 | 1006.3 |
| 20260506201536 | 63 | 0 | 0.9 | 6.1 | 0.01 | 0.09 | 0.09 | 88 | 1006.4 |
| 20260506201019 | 63 | 200 | 0.0 | 7.0 | 0.01 | 0.09 | 0.09 | 90 | 1006.5 |
| 20260506200520 | 62 | 0 | 1.7 | 7.8 | 0.01 | 0.09 | 0.09 | 89 | 1006.6 |
| 20260506200048 | 62 | 0 | 0.9 | 7.8 | 0.01 | 0.09 | 0.09 | 90 | 1006.7 |
| 20260506195516 | 62 | 184 | 0.9 | 7.8 | 0.01 | 0.09 | 0.09 | 90 | 1006.6 |
| 20260506195017 | 62 | 0 | 0.0 | 4.3 | 0.01 | 0.09 | 0.09 | 90 | 1006.7 |
| 20260506194535 | 62 | 0 | 0.9 | 4.3 | 0.01 | 0.09 | 0.09 | 90 | 1006.7 |
| 20260506194017 | 62 | 0 | 0.0 | 4.3 | 0.01 | 0.09 | 0.09 | 91 | 1006.8 |
| 20260506193518 | 62 | 194 | 0.0 | 2.6 | 0.01 | 0.09 | 0.09 | 91 | 1006.9 |
| 20260506193034 | 62 | 0 | 0.0 | 3.5 | 0.00 | 0.08 | 0.08 | 90 | 1007.0 |
| 20260506192516 | 62 | 215 | 0.9 | 3.5 | 0.00 | 0.08 | 0.08 | 90 | 1007.0 |
| 20260506192017 | 62 | 0 | 0.0 | 3.5 | 0.00 | 0.08 | 0.08 | 89 | 1007.0 |
| 20260506191533 | 62 | 0 | 0.0 | 7.0 | 0.00 | 0.08 | 0.08 | 89 | 1007.2 |
| 20260506191017 | 62 | 265 | 0.0 | 8.7 | 0.00 | 0.08 | 0.08 | 89 | 1007.2 |
| 20260506190518 | 62 | 0 | 0.0 | 8.7 | 0.00 | 0.08 | 0.08 | 88 | 1007.2 |
| 20260506190037 | 63 | 196 | 0.9 | 7.0 | 0.00 | 0.08 | 0.08 | 87 | 1007.3 |
| 20260506185515 | 63 | 0 | 0.9 | 6.1 | 0.00 | 0.08 | 0.08 | 86 | 1007.1 |
| 20260506185017 | 63 | 0 | 0.0 | 9.6 | 0.00 | 0.08 | 0.08 | 86 | 1007.2 |
| 20260506184538 | 63 | 0 | 2.6 | 9.6 | 0.00 | 0.08 | 0.08 | 85 | 1007.1 |
| 20260506184016 | 63 | 0 | 0.0 | 7.0 | 0.00 | 0.08 | 0.08 | 86 | 1007.2 |
| 20260506183516 | 63 | 242 | 0.0 | 7.8 | 0.00 | 0.08 | 0.08 | 86 | 1007.1 |
| 20260506183034 | 63 | 0 | 1.7 | 7.8 | 0.00 | 0.08 | 0.08 | 86 | 1007.0 |
| 20260506182516 | 63 | 229 | 1.7 | 9.6 | 0.00 | 0.08 | 0.08 | 87 | 1007.2 |
| 20260506182021 | 63 | 0 | 0.0 | 9.6 | 0.00 | 0.08 | 0.08 | 88 | 1007.3 |
| 20260506181534 | 63 | 0 | 0.0 | 6.1 | 0.00 | 0.08 | 0.08 | 88 | 1007.3 |
| 20260506181015 | 63 | 0 | 0.0 | 3.5 | 0.00 | 0.08 | 0.08 | 88 | 1007.4 |
| 20260506180516 | 63 | 0 | 0.0 | 4.3 | 0.01 | 0.08 | 0.08 | 88 | 1007.2 |
| 20260506180031 | 63 | 0 | 0.0 | 4.3 | 0.01 | 0.08 | 0.08 | 88 | 1007.2 |
| 20260506175517 | 63 | 0 | 0.0 | 5.2 | 0.01 | 0.08 | 0.08 | 87 | 1007.4 |
| 20260506175015 | 63 | 0 | 0.0 | 5.2 | 0.02 | 0.08 | 0.08 | 87 | 1007.5 |
| 20260506174536 | 63 | 0 | 0.9 | 5.2 | 0.02 | 0.08 | 0.08 | 87 | 1007.7 |
| 20260506174017 | 63 | 0 | 0.0 | 7.0 | 0.02 | 0.08 | 0.08 | 87 | 1007.7 |
| 20260506173517 | 64 | 195 | 0.9 | 7.0 | 0.02 | 0.08 | 0.08 | 87 | 1007.6 |
| 20260506173047 | 64 | 0 | 0.0 | 7.0 | 0.03 | 0.08 | 0.08 | 88 | 1007.7 |
| 20260506172515 | 64 | 175 | 0.0 | 4.3 | 0.03 | 0.08 | 0.08 | 89 | 1007.5 |
| 20260506172017 | 64 | 0 | 0.0 | 4.3 | 0.03 | 0.08 | 0.08 | 89 | 1007.6 |
| 20260506171536 | 63 | 0 | 0.9 | 4.3 | 0.04 | 0.08 | 0.08 | 89 | 1007.7 |
| 20260506171016 | 63 | 0 | 0.0 | 4.3 | 0.04 | 0.08 | 0.08 | 89 | 1007.6 |
| 20260506170521 | 63 | 0 | 0.0 | 6.1 | 0.04 | 0.07 | 0.07 | 89 | 1007.3 |
| 20260506170035 | 63 | 0 | 1.7 | 6.1 | 0.05 | 0.07 | 0.07 | 89 | 1007.6 |
| 20260506165517 | 63 | 0 | 0.0 | 1.7 | 0.05 | 0.07 | 0.07 | 89 | 1007.7 |
| 20260506165017 | 63 | 0 | 0.0 | 3.5 | 0.05 | 0.06 | 0.06 | 89 | 1007.5 |
| 20260506164538 | 63 | 0 | 0.0 | 3.5 | 0.05 | 0.06 | 0.06 | 89 | 1007.7 |
| 20260506164019 | 63 | 0 | 0.0 | 5.2 | 0.05 | 0.06 | 0.06 | 89 | 1007.9 |
| 20260506163519 | 63 | 0 | 0.0 | 5.2 | 0.06 | 0.06 | 0.06 | 88 | 1008.1 |
| 20260506163053 | 63 | 0 | 0.0 | 2.6 | 0.05 | 0.05 | 0.05 | 88 | 1008.4 |
| 20260506162517 | 63 | 0 | 0.0 | 2.6 | 0.05 | 0.05 | 0.05 | 87 | 1008.6 |
| 20260506162017 | 63 | 200 | 0.0 | 5.2 | 0.05 | 0.05 | 0.05 | 87 | 1008.7 |
| 20260506161537 | 63 | 0 | 0.0 | 5.2 | 0.04 | 0.04 | 0.04 | 86 | 1008.8 |
| 20260506161019 | 63 | 153 | 0.0 | 4.3 | 0.04 | 0.04 | 0.04 | 86 | 1008.9 |
| 20260506160519 | 63 | 198 | 0.0 | 3.5 | 0.03 | 0.03 | 0.03 | 85 | 1009.0 |
| 20260506160036 | 64 | 0 | 0.0 | 3.5 | 0.02 | 0.02 | 0.02 | 84 | 1008.9 |
| 20260506155519 | 64 | 0 | 0.0 | 3.5 | 0.02 | 0.02 | 0.02 | 81 | 1009.3 |
| 20260506155018 | 64 | 0 | 0.0 | 2.6 | 0.01 | 0.01 | 0.01 | 81 | 1009.3 |
| 20260506154538 | 65 | 0 | 0.0 | 2.6 | 0.01 | 0.01 | 0.01 | 81 | 1009.2 |
| 20260506154019 | 65 | 0 | 0.0 | 2.6 | 0.01 | 0.01 | 0.01 | 80 | 1009.0 |
| 20260506153519 | 65 | 0 | 0.0 | 2.6 | 0.00 | 0.00 | 0.00 | 79 | 1008.9 |
| 20260506153035 | 66 | 0 | 0.0 | 3.5 | 0.00 | 0.00 | 0.00 | 78 | 1009.0 |
| 20260506152518 | 66 | 0 | 0.0 | 6.1 | 0.00 | 0.00 | 0.00 | 78 | 1009.0 |
| 20260506152017 | 66 | 0 | 0.0 | 6.1 | 0.00 | 0.00 | 0.00 | 77 | 1008.9 |
| 20260506151540 | 66 | 229 | 0.9 | 7.0 | 0.00 | 0.00 | 0.00 | 75 | 1009.1 |
| 20260506151019 | 67 | 0 | 0.0 | 7.0 | 0.00 | 0.00 | 0.00 | 74 | 1008.9 |
| 20260506150519 | 67 | 0 | 0.9 | 7.0 | 0.00 | 0.00 | 0.00 | 71 | 1008.8 |
| 20260506150035 | 67 | 0 | 0.0 | 7.8 | 0.00 | 0.00 | 0.00 | 71 | 1008.7 |
| 20260506145520 | 67 | 304 | 0.9 | 9.6 | 0.00 | 0.00 | 0.00 | 70 | 1008.9 |
| 20260506145017 | 68 | 209 | 0.9 | 9.6 | 0.00 | 0.00 | 0.00 | 69 | 1009.0 |
| 20260506144534 | 68 | 228 | 0.9 | 11.3 | 0.00 | 0.00 | 0.00 | 67 | 1008.9 |
| 20260506144017 | 68 | 164 | 1.7 | 11.3 | 0.00 | 0.00 | 0.00 | 67 | 1009.0 |
| 20260506143519 | 69 | 180 | 1.7 | 14.8 | 0.00 | 0.00 | 0.00 | 66 | 1009.0 |
| 20260506143033 | 69 | 0 | 0.9 | 14.8 | 0.00 | 0.00 | 0.00 | 67 | 1009.0 |
| 20260506142522 | 69 | 218 | 0.0 | 13.9 | 0.00 | 0.00 | 0.00 | 68 | 1009.2 |
| 20260506142021 | 69 | 182 | 3.5 | 13.9 | 0.00 | 0.00 | 0.00 | 65 | 1009.0 |
| 20260506141536 | 69 | 0 | 0.9 | 9.6 | 0.00 | 0.00 | 0.00 | 68 | 1008.9 |
| 20260506141023 | 69 | 196 | 0.9 | 7.0 | 0.00 | 0.00 | 0.00 | 66 | 1008.7 |
| 20260506140517 | 68 | 221 | 0.9 | 7.0 | 0.00 | 0.00 | 0.00 | 68 | 1008.7 |
| 20260506140036 | 68 | 194 | 0.9 | 6.1 | 0.00 | 0.00 | 0.00 | 68 | 1008.8 |
| 20260506135518 | 68 | 0 | 1.7 | 6.1 | 0.00 | 0.00 | 0.00 | 68 | 1008.9 |
| 20260506135025 | 68 | 0 | 0.9 | 9.6 | 0.00 | 0.00 | 0.00 | 68 | 1008.9 |
| 20260506134536 | 68 | 225 | 0.0 | 9.6 | 0.00 | 0.00 | 0.00 | 69 | 1009.0 |
| 20260506134019 | 68 | 270 | 0.9 | 9.6 | 0.00 | 0.00 | 0.00 | 68 | 1008.7 |
| 20260506133517 | 68 | 252 | 1.7 | 7.8 | 0.00 | 0.00 | 0.00 | 68 | 1008.9 |
| 20260506133034 | 68 | 0 | 0.0 | 5.2 | 0.00 | 0.00 | 0.00 | 68 | 1009.0 |
| 20260506132522 | 68 | 0 | 0.0 | 7.0 | 0.00 | 0.00 | 0.00 | 69 | 1009.0 |
| 20260506132019 | 68 | 0 | 0.9 | 7.0 | 0.00 | 0.00 | 0.00 | 68 | 1009.2 |
| 20260506131537 | 68 | 244 | 1.7 | 11.3 | 0.00 | 0.00 | 0.00 | 68 | 1009.2 |
| 20260506131018 | 67 | 221 | 0.9 | 11.3 | 0.00 | 0.00 | 0.00 | 69 | 1009.2 |
| 20260506130520 | 67 | 231 | 2.6 | 11.3 | 0.00 | 0.00 | 0.00 | 69 | 1009.1 |
| 20260506130039 | 67 | 0 | 1.7 | 7.8 | 0.00 | 0.00 | 0.00 | 69 | 1009.0 |
| 20260506125516 | 67 | 0 | 1.7 | 8.7 | 0.00 | 0.00 | 0.00 | 69 | 1009.1 |
| 20260506125017 | 67 | 225 | 0.9 | 8.7 | 0.00 | 0.00 | 0.00 | 70 | 1009.0 |
| 20260506124535 | 67 | 182 | 2.6 | 11.3 | 0.00 | 0.00 | 0.00 | 69 | 1008.8 |
| 20260506124019 | 67 | 0 | 1.7 | 11.3 | 0.00 | 0.00 | 0.00 | 69 | 1008.7 |
| 20260506123520 | 67 | 0 | 0.9 | 5.2 | 0.00 | 0.00 | 0.00 | 69 | 1008.9 |
| 20260506123036 | 67 | 0 | 0.0 | 4.3 | 0.00 | 0.00 | 0.00 | 71 | 1008.8 |
| 20260506122517 | 66 | 180 | 0.0 | 3.5 | 0.00 | 0.00 | 0.00 | 71 | 1008.9 |
| 20260506122016 | 66 | 0 | 0.0 | 8.7 | 0.00 | 0.00 | 0.00 | 72 | 1008.8 |
| 20260506121533 | 65 | 225 | 0.0 | 8.7 | 0.00 | 0.00 | 0.00 | 72 | 1009.0 |
| 20260506121017 | 65 | 231 | 2.6 | 8.7 | 0.00 | 0.00 | 0.00 | 72 | 1008.9 |
| 20260506120519 | 65 | 0 | 0.9 | 7.0 | 0.00 | 0.00 | 0.00 | 72 | 1009.0 |
| 20260506120042 | 65 | 0 | 0.0 | 7.0 | 0.00 | 0.00 | 0.00 | 73 | 1009.0 |
| 20260506115519 | 65 | 247 | 0.9 | 7.0 | 0.00 | 0.00 | 0.00 | 72 | 1009.0 |
| 20260506115017 | 65 | 217 | 1.7 | 8.7 | 0.00 | 0.00 | 0.00 | 72 | 1009.1 |
| 20260506114535 | 65 | 198 | 0.0 | 8.7 | 0.00 | 0.00 | 0.00 | 72 | 1009.1 |
| 20260506114018 | 65 | 0 | 1.7 | 8.7 | 0.00 | 0.00 | 0.00 | 72 | 1009.3 |
| 20260506113520 | 65 | 192 | 0.9 | 8.7 | 0.00 | 0.00 | 0.00 | 72 | 1009.4 |
| 20260506113035 | 66 | 223 | 2.6 | 8.7 | 0.00 | 0.00 | 0.00 | 71 | 1009.3 |
| 20260506112521 | 66 | 0 | 2.6 | 8.7 | 0.00 | 0.00 | 0.00 | 71 | 1009.4 |
| 20260506112023 | 66 | 0 | 0.9 | 13.0 | 0.00 | 0.00 | 0.00 | 72 | 1009.0 |
| 20260506111535 | 66 | 203 | 0.9 | 13.0 | 0.00 | 0.00 | 0.00 | 73 | 1009.1 |
| 20260506111019 | 65 | 185 | 1.7 | 13.0 | 0.00 | 0.00 | 0.00 | 73 | 1009.0 |
| 20260506110518 | 65 | 240 | 1.7 | 11.3 | 0.00 | 0.00 | 0.00 | 73 | 1009.1 |
| 20260506110034 | 65 | 225 | 2.6 | 9.6 | 0.00 | 0.00 | 0.00 | 74 | 1008.9 |
| 20260506105517 | 65 | 186 | 0.0 | 6.1 | 0.00 | 0.00 | 0.00 | 74 | 1008.9 |
| 20260506105019 | 65 | 190 | 0.0 | 9.6 | 0.00 | 0.00 | 0.00 | 74 | 1008.8 |
| 20260506104536 | 64 | 206 | 2.6 | 9.6 | 0.00 | 0.00 | 0.00 | 74 | 1008.9 |
| 20260506104022 | 64 | 250 | 1.7 | 7.0 | 0.00 | 0.00 | 0.00 | 75 | 1008.7 |
| 20260506103518 | 64 | 180 | 0.9 | 9.6 | 0.00 | 0.00 | 0.00 | 75 | 1008.6 |
| 20260506103035 | 64 | 165 | 0.9 | 9.6 | 0.00 | 0.00 | 0.00 | 75 | 1008.6 |
| 20260506102517 | 64 | 171 | 1.7 | 10.4 | 0.00 | 0.00 | 0.00 | 75 | 1008.8 |
| 20260506102019 | 64 | 0 | 2.6 | 10.4 | 0.00 | 0.00 | 0.00 | 75 | 1008.8 |
| 20260506101535 | 64 | 206 | 0.0 | 10.4 | 0.00 | 0.00 | 0.00 | 75 | 1008.8 |
| 20260506101016 | 64 | 225 | 1.7 | 10.4 | 0.00 | 0.00 | 0.00 | 75 | 1008.7 |
| 20260506100518 | 64 | 0 | 0.9 | 6.1 | 0.00 | 0.00 | 0.00 | 75 | 1008.8 |
| 20260506100037 | 64 | 0 | 0.9 | 6.1 | 0.00 | 0.00 | 0.00 | 74 | 1008.5 |
| 20260506095516 | 64 | 0 | 0.9 | 7.0 | 0.00 | 0.00 | 0.00 | 74 | 1008.5 |
| 20260506095019 | 65 | 182 | 0.9 | 7.0 | 0.00 | 0.00 | 0.00 | 74 | 1008.6 |
| 20260506094536 | 64 | 166 | 0.9 | 7.0 | 0.00 | 0.00 | 0.00 | 74 | 1008.6 |
| 20260506094018 | 65 | 187 | 0.9 | 7.0 | 0.00 | 0.00 | 0.00 | 74 | 1008.5 |
| 20260506093525 | 64 | 0 | 0.9 | 8.7 | 0.00 | 0.00 | 0.00 | 74 | 1008.4 |
| 20260506093036 | 64 | 207 | 1.7 | 9.6 | 0.00 | 0.00 | 0.00 | 74 | 1008.5 |
| 20260506092518 | 64 | 0 | 1.7 | 9.6 | 0.00 | 0.00 | 0.00 | 75 | 1008.6 |
| 20260506092017 | 64 | 220 | 0.0 | 7.8 | 0.00 | 0.00 | 0.00 | 75 | 1008.6 |
| 20260506091535 | 64 | 325 | 0.9 | 7.8 | 0.00 | 0.00 | 0.00 | 75 | 1008.6 |
| 20260506091020 | 64 | 0 | 0.0 | 7.8 | 0.00 | 0.00 | 0.00 | 75 | 1008.7 |
| 20260506090518 | 64 | 0 | 0.0 | 8.7 | 0.00 | 0.00 | 0.00 | 74 | 1008.7 |
| 20260506090035 | 64 | 173 | 1.7 | 8.7 | 0.00 | 0.00 | 0.00 | 74 | 1008.9 |
| 20260506085516 | 64 | 346 | 0.9 | 5.2 | 0.00 | 0.00 | 0.00 | 75 | 1008.8 |
| 20260506085018 | 64 | 0 | 1.7 | 5.2 | 0.00 | 0.00 | 0.00 | 75 | 1008.8 |
| 20260506084542 | 64 | 0 | 0.0 | 4.3 | 0.00 | 0.00 | 0.00 | 75 | 1008.8 |
| 20260506084017 | 64 | 0 | 0.0 | 5.2 | 0.00 | 0.00 | 0.00 | 75 | 1009.0 |
| 20260506083519 | 64 | 0 | 0.0 | 7.0 | 0.00 | 0.00 | 0.00 | 75 | 1009.0 |
| 20260506083034 | 65 | 188 | 0.9 | 7.0 | 0.00 | 0.00 | 0.00 | 74 | 1008.8 |
| 20260506082520 | 65 | 0 | 0.0 | 7.0 | 0.00 | 0.00 | 0.00 | 74 | 1008.8 |
| 20260506082017 | 65 | 145 | 0.0 | 7.0 | 0.00 | 0.00 | 0.00 | 74 | 1008.8 |
| 20260506081541 | 65 | 192 | 0.0 | 11.3 | 0.00 | 0.00 | 0.00 | 74 | 1008.8 |
| 20260506081019 | 65 | 0 | 1.7 | 11.3 | 0.00 | 0.00 | 0.00 | 74 | 1008.9 |
| 20260506080519 | 65 | 191 | 0.9 | 7.0 | 0.00 | 0.00 | 0.00 | 74 | 1008.9 |
| 20260506073519 | 65 | 193 | 0.0 | 6.1 | 0.00 | 0.00 | 0.00 | 72 | 1008.9 |
| 20260506073035 | 66 | 0 | 0.0 | 6.1 | 0.00 | 0.00 | 0.00 | 72 | 1008.9 |
| 20260506072518 | 66 | 204 | 0.0 | 5.2 | 0.00 | 0.00 | 0.00 | 72 | 1009.0 |
| 20260506072021 | 66 | 0 | 0.0 | 4.3 | 0.00 | 0.00 | 0.00 | 72 | 1009.0 |
| 20260506071538 | 66 | 0 | 0.0 | 6.1 | 0.00 | 0.00 | 0.00 | 71 | 1009.0 |
| 20260506071019 | 66 | 204 | 0.0 | 6.1 | 0.00 | 0.00 | 0.00 | 71 | 1009.0 |
| 20260506070519 | 66 | 0 | 0.0 | 4.3 | 0.00 | 0.00 | 0.00 | 71 | 1009.0 |
| 20260506062017 | 66 | 0 | 0.0 | 3.5 | 0.00 | 0.00 | 0.00 | 69 | 1009.3 |
| 20260506061535 | 66 | 0 | 0.0 | 6.1 | 0.00 | 0.00 | 0.00 | 68 | 1009.4 |
| 20260506061019 | 66 | 0 | 0.0 | 6.1 | 0.00 | 0.00 | 0.00 | 68 | 1009.3 |
| 20260506060517 | 66 | 198 | 0.0 | 5.2 | 0.00 | 0.00 | 0.00 | 68 | 1009.3 |
| 20260506051018 | 67 | 0 | 0.0 | 5.2 | 0.00 | 0.00 | 0.00 | 64 | 1009.8 |
| 20260506050516 | 67 | 192 | 0.9 | 6.1 | 0.00 | 0.00 | 0.00 | 64 | 1009.8 |
| 20260506045017 | 67 | 188 | 0.0 | 4.3 | 0.00 | 0.00 | 0.00 | 63 | 1009.9 |
| 20260506044532 | 68 | 0 | 0.9 | 11.3 | 0.00 | 0.00 | 0.00 | 63 | 1009.9 |
| 20260506044018 | 68 | 192 | 1.7 | 11.3 | 0.00 | 0.00 | 0.00 | 62 | 1009.9 |
| 20260506043520 | 68 | 204 | 0.9 | 4.3 | 0.00 | 0.00 | 0.00 | 62 | 1009.8 |
| 20260506043032 | 68 | 0 | 0.0 | 7.0 | 0.00 | 0.00 | 0.00 | 62 | 1009.9 |
| 20260506042518 | 68 | 0 | 1.7 | 8.7 | 0.00 | 0.00 | 0.00 | 61 | 1009.8 |
| 20260506042016 | 68 | 237 | 0.9 | 8.7 | 0.00 | 0.00 | 0.00 | 61 | 1009.8 |
| 20260506041551 | 68 | 190 | 0.9 | 7.0 | 0.00 | 0.00 | 0.00 | 61 | 1009.8 |
| 20260506041018 | 68 | 194 | 0.9 | 7.8 | 0.00 | 0.00 | 0.00 | 60 | 1009.9 |
| 20260506040518 | 68 | 214 | 0.9 | 7.8 | 0.00 | 0.00 | 0.00 | 60 | 1010.0 |
| 20260506040034 | 69 | 0 | 0.9 | 5.2 | 0.00 | 0.00 | 0.00 | 60 | 1009.8 |
| 20260506035521 | 69 | 191 | 0.9 | 5.2 | 0.00 | 0.00 | 0.00 | 60 | 1009.9 |
| 20260506035018 | 69 | 201 | 0.9 | 5.2 | 0.00 | 0.00 | 0.00 | 59 | 1009.9 |
| 20260506034548 | 69 | 0 | 0.0 | 8.7 | 0.00 | 0.00 | 0.00 | 59 | 1009.8 |
| 20260506034023 | 69 | 0 | 0.9 | 8.7 | 0.00 | 0.00 | 0.00 | 59 | 1009.8 |
| 20260506033520 | 69 | 148 | 1.7 | 7.8 | 0.00 | 0.00 | 0.00 | 59 | 1009.7 |
| 20260506033033 | 69 | 0 | 1.7 | 7.8 | 0.00 | 0.00 | 0.00 | 59 | 1009.8 |
| 20260506032518 | 69 | 207 | 1.7 | 7.8 | 0.00 | 0.00 | 0.00 | 59 | 1009.7 |
| 20260506032016 | 69 | 0 | 0.0 | 5.2 | 0.00 | 0.00 | 0.00 | 58 | 1009.7 |
| 20260506031535 | 69 | 207 | 0.0 | 6.1 | 0.00 | 0.00 | 0.00 | 58 | 1009.7 |
| 20260506031015 | 69 | 0 | 0.9 | 8.7 | 0.00 | 0.00 | 0.00 | 58 | 1009.7 |
| 20260506030517 | 69 | 226 | 0.0 | 8.7 | 0.00 | 0.00 | 0.00 | 57 | 1009.7 |
| 20260506030037 | 69 | 180 | 2.6 | 8.7 | 0.00 | 0.00 | 0.00 | 57 | 1009.7 |
| 20260506025519 | 69 | 196 | 0.9 | 7.0 | 0.00 | 0.00 | 0.00 | 57 | 1009.8 |
| 20260506025015 | 69 | 0 | 0.9 | 8.7 | 0.00 | 0.00 | 0.00 | 57 | 1009.7 |
| 20260506024538 | 70 | 0 | 1.7 | 8.7 | 0.00 | 0.00 | 0.00 | 57 | 1009.7 |
| 20260506024018 | 70 | 211 | 1.7 | 8.7 | 0.00 | 0.00 | 0.00 | 57 | 1009.7 |
| 20260506023521 | 70 | 0 | 2.6 | 7.8 | 0.00 | 0.00 | 0.00 | 57 | 1009.6 |
| 20260506023033 | 70 | 192 | 0.9 | 7.0 | 0.00 | 0.00 | 0.00 | 56 | 1009.6 |
| 20260506022518 | 70 | 0 | 0.9 | 7.0 | 0.00 | 0.00 | 0.00 | 56 | 1009.7 |
| 20260506022016 | 70 | 207 | 0.9 | 8.7 | 0.00 | 0.00 | 0.00 | 56 | 1009.6 |
| 20260506021533 | 71 | 0 | 0.9 | 8.7 | 0.00 | 0.00 | 0.00 | 55 | 1009.6 |
| 20260506021018 | 71 | 0 | 1.7 | 7.0 | 0.00 | 0.00 | 0.00 | 55 | 1009.6 |
| 20260506020521 | 71 | 242 | 0.9 | 7.8 | 0.00 | 0.00 | 0.00 | 54 | 1009.7 |
| 20260506020035 | 71 | 184 | 2.6 | 7.8 | 0.00 | 0.00 | 0.00 | 54 | 1009.6 |
| 20260506015518 | 71 | 0 | 0.9 | 6.1 | 0.00 | 0.00 | 0.00 | 54 | 1009.4 |
| 20260506015016 | 71 | 198 | 0.9 | 13.9 | 0.00 | 0.00 | 0.00 | 53 | 1009.6 |
| 20260506014536 | 72 | 192 | 2.6 | 13.9 | 0.00 | 0.00 | 0.00 | 52 | 1009.5 |
| 20260506014016 | 72 | 217 | 1.7 | 11.3 | 0.00 | 0.00 | 0.00 | 51 | 1009.4 |
| 20260506013515 | 72 | 179 | 2.6 | 13.0 | 0.00 | 0.00 | 0.00 | 50 | 1009.2 |
| 20260506013049 | 73 | 0 | 0.9 | 13.0 | 0.00 | 0.00 | 0.00 | 49 | 1009.4 |
| 20260506012518 | 73 | 189 | 1.7 | 7.8 | 0.00 | 0.00 | 0.00 | 47 | 1009.3 |
| 20260506012016 | 74 | 182 | 1.7 | 8.7 | 0.00 | 0.00 | 0.00 | 45 | 1009.3 |
| 20260506011531 | 74 | 182 | 2.6 | 8.7 | 0.00 | 0.00 | 0.00 | 44 | 1009.2 |
| 20260506011018 | 74 | 173 | 2.6 | 7.8 | 0.00 | 0.00 | 0.00 | 44 | 1009.1 |
| 20260506010518 | 74 | 0 | 0.9 | 10.4 | 0.00 | 0.00 | 0.00 | 43 | 1009.0 |
| 20260506010035 | 74 | 166 | 1.7 | 10.4 | 0.00 | 0.00 | 0.00 | 43 | 1009.0 |
| 20260506005517 | 75 | 178 | 0.9 | 7.8 | 0.00 | 0.00 | 0.00 | 42 | 1008.9 |
| 20260506005015 | 75 | 225 | 1.7 | 7.8 | 0.00 | 0.00 | 0.00 | 42 | 1008.8 |
| 20260506004534 | 75 | 169 | 0.9 | 7.8 | 0.00 | 0.00 | 0.00 | 42 | 1008.7 |
| 20260506004017 | 75 | 195 | 1.7 | 7.8 | 0.00 | 0.00 | 0.00 | 42 | 1008.5 |
| 20260506003517 | 75 | 0 | 0.9 | 6.1 | 0.00 | 0.00 | 0.00 | 42 | 1008.7 |
| 20260506003036 | 75 | 184 | 1.7 | 6.1 | 0.00 | 0.00 | 0.00 | 42 | 1008.5 |
| 20260506002518 | 75 | 0 | 0.9 | 4.3 | 0.00 | 0.00 | 0.00 | 42 | 1008.4 |
| 20260506002016 | 75 | 0 | 0.9 | 5.2 | 0.00 | 0.00 | 0.00 | 42 | 1008.5 |
| 20260506001536 | 75 | 0 | 0.9 | 5.2 | 0.00 | 0.00 | 0.00 | 42 | 1008.4 |
| 20260506001016 | 76 | 202 | 0.9 | 10.4 | 0.00 | 0.00 | 0.00 | 41 | 1008.5 |
| 20260506000515 | 76 | 0 | 0.9 | 10.4 | 0.00 | 0.00 | 0.00 | 41 | 1008.3 |
| 20260506000036 | 76 | 180 | 2.6 | 8.7 | 0.00 | 0.00 | 0.00 | 41 | 1008.3 |
| 20260505235517 | 76 | 0 | 1.7 | 10.4 | 0.00 | 0.00 | 0.00 | 40 | 1008.2 |
| 20260505235021 | 77 | 180 | 1.7 | 11.3 | 0.00 | 0.00 | 0.00 | 40 | 1008.1 |
| 20260505234534 | 77 | 175 | 1.7 | 11.3 | 0.00 | 0.00 | 0.00 | 39 | 1008.1 |
| 20260505234016 | 77 | 234 | 0.9 | 9.6 | 0.00 | 0.00 | 0.00 | 38 | 1008.0 |
| 20260505233517 | 77 | 242 | 0.9 | 7.8 | 0.00 | 0.00 | 0.00 | 37 | 1008.2 |
| 20260505233036 | 77 | 179 | 0.9 | 7.8 | 0.00 | 0.00 | 0.00 | 36 | 1008.1 |
| 20260505232516 | 78 | 201 | 0.9 | 8.7 | 0.00 | 0.00 | 0.00 | 36 | 1008.1 |
| 20260505232015 | 78 | 0 | 0.0 | 8.7 | 0.00 | 0.00 | 0.00 | 35 | 1008.2 |
| 20260505231536 | 78 | 0 | 1.7 | 8.7 | 0.00 | 0.00 | 0.00 | 35 | 1008.1 |
| 20260505231016 | 78 | 213 | 0.0 | 7.0 | 0.00 | 0.00 | 0.00 | 35 | 1008.1 |
| 20260505230516 | 79 | 209 | 0.0 | 8.7 | 0.00 | 0.00 | 0.00 | 35 | 1008.0 |
| 20260505230052 | 79 | 0 | 0.9 | 8.7 | 0.00 | 0.00 | 0.00 | 34 | 1007.9 |
| 20260505225517 | 79 | 292 | 0.9 | 7.8 | 0.00 | 0.00 | 0.00 | 34 | 1007.9 |
| 20260505225016 | 79 | 0 | 0.9 | 7.8 | 0.00 | 0.00 | 0.00 | 33 | 1007.7 |
| 20260505224535 | 79 | 0 | 1.7 | 10.4 | 0.00 | 0.00 | 0.00 | 32 | 1007.9 |
| 20260505224016 | 79 | 194 | 1.7 | 13.0 | 0.00 | 0.00 | 0.00 | 31 | 1007.8 |
| 20260505223519 | 79 | 212 | 0.9 | 13.9 | 0.00 | 0.00 | 0.00 | 31 | 1007.6 |
| 20260505223039 | 79 | 254 | 2.6 | 13.9 | 0.00 | 0.00 | 0.00 | 32 | 1007.7 |
| 20260505222520 | 79 | 0 | 0.9 | 8.7 | 0.00 | 0.00 | 0.00 | 31 | 1007.8 |
| 20260505222017 | 80 | 190 | 0.9 | 10.4 | 0.00 | 0.00 | 0.00 | 31 | 1007.8 |
| 20260505221543 | 80 | 290 | 0.9 | 10.4 | 0.00 | 0.00 | 0.00 | 30 | 1007.7 |
| 20260505221020 | 80 | 0 | 2.6 | 12.2 | 0.00 | 0.00 | 0.00 | 30 | 1007.7 |
| 20260505220516 | 80 | 254 | 3.5 | 12.2 | 0.00 | 0.00 | 0.00 | 29 | 1007.8 |
| 20260505220049 | 80 | 240 | 2.6 | 11.3 | 0.00 | 0.00 | 0.00 | 30 | 1007.6 |
| 20260505215516 | 81 | 0 | 0.9 | 15.6 | 0.00 | 0.00 | 0.00 | 30 | 1007.8 |
| 20260505215017 | 81 | 249 | 3.5 | 15.6 | 0.00 | 0.00 | 0.00 | 29 | 1007.5 |
| 20260505214536 | 81 | 196 | 1.7 | 8.7 | 0.00 | 0.00 | 0.00 | 29 | 1007.5 |
| 20260505214015 | 81 | 194 | 0.9 | 11.3 | 0.00 | 0.00 | 0.00 | 28 | 1007.5 |
| 20260505213518 | 81 | 197 | 1.7 | 15.6 | 0.00 | 0.00 | 0.00 | 29 | 1007.4 |
| 20260505213034 | 81 | 215 | 2.6 | 15.6 | 0.00 | 0.00 | 0.00 | 27 | 1007.3 |
| 20260505212517 | 82 | 170 | 2.6 | 13.9 | 0.00 | 0.00 | 0.00 | 27 | 1007.2 |
| 20260505212016 | 83 | 315 | 1.7 | 12.2 | 0.00 | 0.00 | 0.00 | 26 | 1007.3 |